Sydney, New South Wales

12:30 AM AEST on July 31, 2016 (GMT +1000)
Kingsford Smith International

Weather History for YSSY - June, 2014

Change the Weather History Date:

Tuesday, June 3, 2014

  Actual Average Record
Temperature  
Mean Temperature 60 °F -  
Max Temperature 69 °F 63 °F 75 °F (2003)
Min Temperature 50 °F 47 °F 44 °F (1997)
Degree Days  
Heating Degree Days 6    
Growing Degree Days 10 (Base 50)    
Moisture  
Dew Point 43 °F    
Average Humidity 54    
Maximum Humidity 82    
Minimum Humidity 25    
Precipitation  
Precipitation 0.00 in 0.16 in - ()
Sea Level Pressure  
Sea Level Pressure 30.05 in    
Wind  
Wind Speed 9 mph ()    
Max Wind Speed 26 mph    
Max Gust Speed -    
Visibility 9.9 miles    
Events      
Averages and records for this station are not official NWS values.
T = Trace of Precipitation, MM = Missing Value Source: Averaged Metar Reports

Daily Weather History Graph

Daily Weather History Graph

Search for Another Location

Airport or City:

Trip Planner

Search our weather history database for the weather conditions in past years. The results will help you decide how hot, cold, wet, or windy it might be!

Date:

Astronomy

Jun. 03, 2014 Rise Set
Actual Time 6:52 AM AEST 4:53 PM AEST
Civil Twilight 6:25 AM AEST 5:21 PM AEST
Nautical Twilight 5:54 AM AEST 5:52 PM AEST
Astronomical Twilight 5:24 AM AEST 6:22 PM AEST
Moon 10:34 AM AEST (6/3) 9:48 PM AEST (6/3)
Length of Visible Light 10h 55m
Length of Day
10h 00m
Waxing Crescent, 25% of the Moon is Illuminated
Jun 3
Waxing Crescent
Jun 6
First Quarter
Jun 13
Full
Jun 20
Last Quarter
Jun 27
New

Hourly Weather History & Observations

Time (AEST) Temp. Dew Point Humidity Pressure Visibility Wind Dir Wind Speed Gust Speed Precip Events Conditions
12:00 AM 56 °F 48 °F 67% 30.06 in 19 mi North 8.1 mph - -   Partly Cloudy
12:00 AM 57.2 °F 48.2 °F 72% 30.04 in - North 8.1 mph - N/A   Clear
12:30 AM 55.4 °F 48.2 °F 77% 30.04 in - NNW 6.9 mph - N/A   Clear
1:00 AM 55 °F 47 °F 67% 30.05 in - North 4.6 mph - -  
1:00 AM 55.4 °F 46.4 °F 72% 30.04 in - North 4.6 mph - N/A   Clear
1:30 AM 53.6 °F 46.4 °F 77% 30.04 in - NW 4.6 mph - N/A   Clear
2:00 AM 54 °F 46 °F 68% 30.05 in - NW 5.8 mph - -  
2:00 AM 53.6 °F 46.4 °F 77% 30.04 in - NW 5.8 mph - N/A   Clear
3:00 AM 53 °F 47 °F 72% 30.04 in 19 mi NNW 6.9 mph - -   Partly Cloudy
3:00 AM 51.8 °F 46.4 °F 82% 30.04 in - NNW 6.9 mph - N/A   Clear
3:30 AM 53.6 °F 46.4 °F 77% 30.04 in - NNW 8.1 mph - N/A   Clear
4:00 AM 52 °F 46 °F 74% 30.04 in - NNW 6.9 mph - -  
4:00 AM 51.8 °F 46.4 °F 82% 30.04 in - NNW 6.9 mph - N/A   Clear
4:30 AM 51.8 °F 46.4 °F 82% 30.04 in - NW 8.1 mph - N/A   Clear
5:00 AM 52 °F 46 °F 71% 30.04 in - North 6.9 mph - -  
5:00 AM 51.8 °F 46.4 °F 82% 30.04 in - North 6.9 mph - N/A   Clear
6:00 AM 52 °F 45 °F 69% 30.05 in 19 mi WNW 6.9 mph - -   Partly Cloudy
6:00 AM 51.8 °F 44.6 °F 76% 30.04 in 6.2 mi WNW 6.9 mph - N/A   Partly Cloudy
6:30 AM 51.8 °F 46.4 °F 82% 30.04 in 6.2 mi WNW 8.1 mph - N/A   Partly Cloudy
7:00 AM 53 °F 45 °F 66% 30.06 in - NW 10.4 mph - -  
7:00 AM 51.8 °F 44.6 °F 76% 30.04 in 6.2 mi NW 10.4 mph - N/A   Partly Cloudy
7:30 AM 53.6 °F 44.6 °F 72% 30.06 in 6.2 mi NW 9.2 mph - N/A   Partly Cloudy
8:00 AM 57 °F 45 °F 54% 30.07 in - NW 9.2 mph - -  
8:00 AM 57.2 °F 44.6 °F 63% 30.06 in 6.2 mi NW 9.2 mph - N/A   Partly Cloudy
8:30 AM 57.2 °F 46.4 °F 67% 30.06 in 6.2 mi NNW 9.2 mph - N/A   Partly Cloudy
9:00 AM 60 °F 44 °F 45% 30.07 in 19 mi NNW 8.1 mph - -   Partly Cloudy
9:00 AM 60.8 °F 44.6 °F 55% 30.06 in 6.2 mi NNW 8.1 mph - N/A   Partly Cloudy
9:30 AM 60.8 °F 44.6 °F 55% 30.06 in 6.2 mi NW 6.9 mph - N/A   Partly Cloudy
10:00 AM 63 °F 44 °F 39% 30.07 in - NW 8.1 mph - -  
10:00 AM 62.6 °F 44.6 °F 52% 30.06 in 6.2 mi NW 8.1 mph - N/A   Partly Cloudy
10:30 AM 62.6 °F 42.8 °F 48% 30.06 in 6.2 mi NW 10.4 mph - N/A   Partly Cloudy
11:00 AM 64 °F 42 °F 33% 30.06 in - WNW 11.5 mph - -  
11:00 AM 64.4 °F 41.0 °F 42% 30.04 in 6.2 mi WNW 11.5 mph - N/A   Partly Cloudy
11:30 AM 66.2 °F 42.8 °F 43% 30.04 in 6.2 mi WNW 10.4 mph - N/A   Partly Cloudy
12:00 PM 64 °F 42 °F 33% 30.04 in 19 mi WNW 12.7 mph - -   Partly Cloudy
12:00 PM 64.4 °F 42.8 °F 45% 30.04 in 6.2 mi WNW 12.7 mph - N/A   Partly Cloudy
12:30 PM 66.2 °F 41.0 °F 40% 30.01 in 6.2 mi West 15.0 mph - N/A   Partly Cloudy
1:00 PM 67 °F 42 °F 29% 30.02 in - WNW 10.4 mph - -  
1:00 PM 66.2 °F 42.8 °F 43% 30.01 in 6.2 mi WNW 10.4 mph - N/A   Partly Cloudy
1:30 PM 68.0 °F 41.0 °F 37% 30.01 in 6.2 mi WNW 15.0 mph - N/A   Partly Cloudy
2:00 PM 69 °F 41 °F 25% 30.00 in - WNW 17.3 mph - -  
2:00 PM 68.0 °F 41.0 °F 37% 29.98 in - WNW 17.3 mph - N/A   Clear
2:30 PM 68.0 °F 42.8 °F 40% 30.01 in - WNW 16.1 mph - N/A   Clear
3:00 PM 68 °F 42 °F 28% 30.01 in 19 mi WNW 17.3 mph - -   Partly Cloudy
3:00 PM 68.0 °F 42.8 °F 40% 30.01 in - WNW 17.3 mph - N/A   Clear
3:30 PM 66.2 °F 42.8 °F 43% 30.01 in - West 13.8 mph - N/A   Clear
4:00 PM 65 °F 42 °F 31% 30.02 in - West 18.4 mph - -  
4:00 PM 66.2 °F 41.0 °F 40% 30.01 in 6.2 mi West 18.4 mph - N/A   Partly Cloudy
4:30 PM 64.4 °F 41.0 °F 42% 30.04 in 6.2 mi West 19.6 mph - N/A   Partly Cloudy
5:00 PM 62 °F 42 °F 37% 30.04 in - West 18.4 mph - -  
5:00 PM 62.6 °F 42.8 °F 48% 30.04 in 6.2 mi West 18.4 mph - N/A   Partly Cloudy
5:30 PM 60.8 °F 42.8 °F 52% 30.04 in - West 19.6 mph - N/A   Clear
6:00 PM 60 °F 42 °F 39% 30.06 in 19 mi West 19.6 mph - -   Partly Cloudy
6:00 PM 60.8 °F 41.0 °F 48% 30.06 in - West 19.6 mph - N/A   Clear
6:30 PM 59.0 °F 41.0 °F 51% 30.06 in 6.2 mi West 23.0 mph - N/A   Unknown
7:00 PM 59 °F 41 °F 40% 30.08 in - West 26.5 mph - -  
7:00 PM 59.0 °F 41.0 °F 51% 30.06 in - West 26.5 mph - N/A   Clear
7:30 PM 59.0 °F 41.0 °F 51% 30.09 in - WNW 18.4 mph - N/A   Clear
8:00 PM 59 °F 41 °F 39% 30.11 in - WNW 13.8 mph - -  
8:00 PM 59.0 °F 41.0 °F 51% 30.09 in - WNW 13.8 mph - N/A   Clear
8:30 PM 59.0 °F 41.0 °F 51% 30.09 in - WNW 12.7 mph - N/A   Clear
9:00 PM 58 °F 41 °F 42% 30.12 in 19 mi NW 12.7 mph - -   Partly Cloudy
9:00 PM 59.0 °F 41.0 °F 51% 30.09 in - NW 12.7 mph - N/A   Clear
9:30 PM 57.2 °F 41.0 °F 55% 30.09 in - NW 12.7 mph - N/A   Clear
10:00 PM 58 °F 40 °F 41% 30.12 in - WNW 11.5 mph - -  
10:00 PM 57.2 °F 41.0 °F 55% 30.09 in - WNW 11.5 mph - N/A   Clear
10:30 PM 57.2 °F 41.0 °F 55% 30.12 in - NNW 8.1 mph - N/A   Clear
11:00 PM 58 °F 41 °F 43% 30.12 in - NNW 9.2 mph - -  
11:00 PM 57.2 °F 41.0 °F 55% 30.12 in - NNW 9.2 mph - N/A   Clear
11:30 PM 55.4 °F 42.8 °F 63% 30.12 in - NNW 9.2 mph - N/A   Clear